Location: Dürrn
(48.9561°N, 8.7528°E)
Time: 17:28:32
(UTC+00:00)

Daily predictions for brighter satellites

Satellite Brightness Start Highest point End
(mag) Time Altitude Azimuth Time Altitude Azimuth Time Altitude Azimuth
S3M 4.0 20:05:28 10° S 20:11:38 67° E 20:17:45 10° NNE
SL-16 R/B 4.1 20:09:06 10° WSW 20:14:20 37° NW 20:19:37 10° NNE
USA 245 3.9 20:09:15 10° SSE 20:14:22 65° ENE 20:18:29 10° N
Cosmos 1626 4.2 20:11:39 10° SW 20:14:54 30° WNW 20:18:10 10° N
MetOp-B 4.2 20:11:42 10° SSE 20:17:03 87° W 20:22:27 10° NNW
SPOT 5 3.2 20:13:30 10° SE 20:17:49 46° ENE 20:22:00 10° N
Meteor 2-5 Rocket 4.2 20:13:31 10° SSE 20:18:37 40° E 20:23:46 10° NNE
SPOT 1/Viking Rocket 4.1 20:16:32 10° S 20:21:36 59° W 20:26:43 10° NNW
Cosmos 1271 Rocket 4.3 20:19:17 10° NNE 20:22:37 24° ENE 20:25:54 10° SE
Cosmos 1300 3.0 20:20:32 10° NNW 20:24:19 69° W 20:28:04 10° S
Cosmos 1025 Rocket 3.6 20:21:20 10° SSE 20:25:17 38° E 20:29:16 10° NNE
ERS-1 Rocket 3.3 20:25:01 10° SSE 20:29:56 56° ENE 20:34:52 10° N
Cosmos 1140 Rocket 3.5 20:27:16 10° NNW 20:32:31 86° WSW 20:37:42 10° SSE
Cosmos 1953 3.8 20:31:26 10° NNW 20:35:02 34° W 20:38:36 10° SSW
Cosmos 1943 3.5 20:32:05 10° SW 20:37:45 74° WNW 20:43:26 10° NNE
Cosmos 1745 Rocket 4.4 20:33:02 10° NNW 20:39:05 65° W 20:45:09 10° S
CZ-2C R/B 4.2 20:36:45 10° NNE 20:41:09 42° E 20:45:28 10° S
Cosmos 1603 4.0 20:36:01 10° SSW 20:41:43 77° WNW 20:47:29 10° NNE
Lacrosse 5 2.6 20:37:34 10° NW 20:42:34 51° NNE 20:47:32 10° E
Cosmos 1975 Rocket 3.1 20:41:29 10° S 20:45:56 76° E 20:50:24 10° NNE
H-2A R/B 4.0 20:43:00 10° N 20:46:53 32° WNW 20:50:49 10° SW
Helios 1A Rocket 2.9 20:43:49 10° SSE 20:47:51 88° ENE 20:51:58 10° NNW
Ariane Rocket 4.2 20:44:30 10° SSW 20:49:17 40° W 20:54:05 10° NNW
Cosmos 1954 Rocket 4.3 20:44:22 10° NNW 20:49:38 60° ENE 20:54:15 13° SE
CARTOSAT-1 4.4 20:45:42 10° S 20:49:51 47° W 20:54:03 10° NNW
Resurs 01 Rocket 3.7 20:50:22 10° SW 20:53:54 23° W 20:57:29 10° NW
Lacrosse 4 Rocket 3.0 20:54:02 10° WSW 20:57:54 37° NW 21:01:44 10° NNE
Tiangong 2.6 20:56:51 10° SW 20:59:15 20° S 21:00:12 17° SSE
Cosmos 2228 4.4 20:57:53 10° NNE 21:01:27 25° ENE 21:04:23 13° ESE
Cosmos 1544 Rocket 3.5 20:59:43 10° N 21:04:04 75° E 21:07:38 15° SSE
FALCON 9 DEB 2.9 21:03:28 10° WSW 21:06:43 79° SSE 21:10:00 10° ENE
Terra 1.8 21:02:52 13° SSE 21:07:08 88° WSW 21:11:56 10° NNW
SL-8 R/B 3.6 21:03:54 10° WSW 21:08:43 81° S 21:13:33 10° E
USA 267 3.2 21:02:42 10° ENE 21:09:12 67° SE 21:15:43 10° SW
Cosmos 1980 Rocket 4.4 21:06:39 10° N 21:10:34 18° NE 21:14:28 10° E
Cosmos 1455 2.1 21:08:02 10° N 21:11:50 83° ENE 21:14:42 17° SSE
Meteor 1-24 Rocket 3.6 21:07:16 10° S 21:12:34 88° W 21:17:59 10° NNE
Cosmos 2369 Rocket 4.5 21:09:35 10° WNW 21:12:53 16° W 21:16:11 10° SW
Cosmos 2315 Rocket 4.2 21:07:24 10° SSW 21:13:46 76° W 21:20:07 10° N
Cosmos 1697 Rocket 4.1 21:10:43 10° NNW 21:15:37 29° NE 21:20:29 10° ESE
NOSS 2-1 (C) 4.1 21:12:51 10° NW 21:17:10 70° NE 21:22:11 15° SE
Cosmos 1371 Rocket 4.0 21:13:21 10° SSW 21:18:35 88° ESE 21:23:54 10° NNE
RESURS DK-1 4.1 21:16:13 10° N 21:19:41 25° NE 21:23:09 10° ESE
Cosmos 1452 Rocket 4.4 21:17:03 17° SSE 21:20:14 31° E 21:24:48 10° NE
Spot 2 Rocket 4.2 21:15:30 10° S 21:20:25 49° W 21:25:22 10° NNW
ARIANE 5 R/B 2.8 21:23:37 17° S 21:27:07 74° WSW 21:31:36 10° NNW
NOSS 2-1 (D) 4.0 21:23:09 10° NW 21:27:32 81° NE 21:32:17 17° SE
Lacrosse 5 rocket 1.2 21:25:17 10° WNW 21:29:08 75° SW 21:31:47 21° SE
ASTEX 1 4.3 21:24:37 10° NNE 21:29:10 34° E 21:32:06 19° SE
Cosmos 2084 3.4 21:26:52 10° SSW 21:30:32 47° SE 21:34:17 10° NE
Cosmos 2074 Rocket 4.0 21:30:54 10° N 21:37:14 86° E 21:42:02 18° S
ATLAS 2AS CENTAUR R/B 2.7 21:32:44 10° NW 21:39:55 77° SW 21:44:51 19° SSE
Cosmos 1624 Rocket 4.3 21:35:12 10° SSW 21:40:25 68° WNW 21:45:39 10° NNE
Cosmos 1656 3.7 21:37:37 10° NNW 21:43:06 76° ENE 21:46:54 21° SE
GP-B 4.2 21:39:25 10° NNE 21:43:26 32° E 21:45:40 20° SE
USA 234 3.3 21:38:51 16° SE 21:44:20 75° SW 21:50:56 10° WNW
Cosmos 1833 Rocket 3.6 21:44:38 20° SSE 21:47:16 30° ESE 21:52:05 10° NE
Cosmos 2154 Rocket 4.0 21:50:17 10° N 21:56:35 85° E 22:00:52 22° S
Cosmos 1271 Rocket 4.2 21:54:58 10° NNW 21:58:33 32° W 22:01:16 15° SSW
Nadezhda 1 Rocket 4.0 21:54:38 20° S 21:59:01 71° E 22:05:05 10° NNE
Cosmos 2056 Rocket 4.5 21:55:01 10° SW 22:00:13 49° WNW 22:05:31 10° NNE
Cosmos 2082 Rocket 3.9 21:59:42 15° ESE 22:01:33 17° E 22:05:10 10° ENE
Cosmos 1741 Rocket 4.0 21:58:27 10° NNW 22:03:48 85° ENE 22:07:02 25° SSE
Cosmos 1610 Rocket 4.5 21:58:17 10° N 22:04:30 87° E 22:08:40 22° S
Cosmos 2344 4.4 22:00:06 10° NW 22:08:44 74° NE 22:20:42 10° SE
Cosmos 1536 Rocket 4.5 22:13:47 14° SW 22:17:18 44° WNW 22:21:29 10° N
Cosmos 1607 4.4 22:12:01 10° SW 22:18:11 63° NW 22:24:20 10° NE
Cosmos 968 Rocket 4.2 22:20:04 10° NNW 22:25:04 46° ENE 22:28:30 19° SE
Cosmos 1606 Rocket 3.6 22:21:04 10° NNW 22:25:23 72° W 22:27:26 30° S
Lacrosse 5 2.2 22:20:40 10° WNW 22:25:37 51° SW 22:27:56 29° SSE
H-2A R/B 4.1 22:21:46 10° NNE 22:25:47 42° E 22:27:16 30° SE
COSMOS 2406 3.9 22:25:00 25° SSE 22:27:31 37° ESE 22:32:46 10° NE
Cosmos 724 4.4 22:25:41 10° SW 22:31:29 76° NW 22:37:19 10° NE
Meteor 1-11 4.4 22:30:33 27° SSE 22:33:33 58° E 22:39:03 10° NNE
SL-8 Rocket 4.1 22:29:30 10° N 22:35:47 69° ENE 22:39:30 26° SSE
TSX-5 4.4 22:33:04 18° SW 22:36:20 79° WNW 22:42:00 10° NNE
Cosmos 1850 Rocket 4.4 22:31:23 10° NNW 22:36:26 51° WSW 22:39:02 27° SSW
Cosmos 2369 4.1 22:31:38 10° NNW 22:37:19 60° ENE 22:41:14 20° SE
SJ 16-02 4.1 22:36:56 10° NNE 22:38:24 11° NE 22:39:53 10° ENE
Cosmos 2228 4.2 22:35:10 10° NNW 22:39:01 34° W 22:41:10 21° SW
Cosmos 1328 3.9 22:37:11 30° SSW 22:39:06 71° W 22:43:08 10° N
Cosmos 2218 Rocket 4.3 22:33:01 10° N 22:39:23 63° ENE 22:43:17 25° SSE
Cosmos 2341 Rocket 4.0 22:34:56 10° N 22:41:21 87° E 22:45:04 27° S
SL-16 R/B 4.2 22:37:51 10° N 22:42:20 23° NE 22:46:46 10° E
FALCON 9 DEB 4.4 22:40:04 10° W 22:43:11 41° N 22:46:20 10° ENE
Cosmos 1408 2.5 22:43:33 45° SSE 22:44:24 64° E 22:47:49 10° NNE
Terra 4.3 22:43:46 10° WSW 22:45:36 12° W 22:47:27 10° WNW
Cosmos 1825 3.2 22:46:54 28° ESE 22:47:50 33° E 22:51:13 10° NNE
ALOS 2 2.5 22:46:37 34° SSE 22:48:32 89° W 22:52:57 10° NNW
Cosmos 2366 rocket 4.1 22:42:43 10° N 22:49:03 73° E 22:52:47 26° SSE
Cosmos 1900 4.4 22:45:25 10° NW 22:50:38 84° NE 22:53:35 26° SE
Cosmos 1867 4.5 22:45:36 10° NNW 22:50:54 47° NE 22:56:08 10° ESE
SL-8 R/B 3.6 22:46:25 10° W 22:51:14 76° SSW 22:56:04 10° ESE
Cosmos 1726 Rocket 4.0 22:47:35 10° NNW 22:51:46 50° W 22:53:36 29° SSW
USA 267 3.9 22:45:48 10° ENE 22:52:12 59° NNW 22:58:35 10° W
Cosmos 1980 Rocket 2.4 22:49:55 10° NNW 22:55:39 72° ENE 22:59:14 23° SE
RESURS DK-1 2.9 22:53:55 10° NW 22:57:51 44° WSW 22:59:03 34° SSW
Cosmos 1697 Rocket 2.8 22:54:26 10° NW 22:59:59 60° WSW 23:02:42 30° S
Cosmos 1331 Rocket 4.2 22:57:22 21° SSW 23:00:55 72° WNW 23:06:15 10° NNE
Cosmos 1452 Rocket 4.5 22:57:19 11° SW 23:02:11 44° WNW 23:07:14 10° NNE
Lacrosse 5 rocket 3.4 23:05:37 10° W 23:07:17 13° WSW 23:07:17 13° WSW
Cosmos 1892 2.6 23:06:34 41° SSW 23:07:45 79° W 23:11:32 10° N
ERS-2 2.2 23:05:01 10° NNE 23:08:35 60° ESE 23:09:26 45° SSE
ADEOS Rocket 3.5 23:05:35 26° S 23:09:49 75° WSW 23:17:24 10° NNW
USA 276 1.7 23:10:14 75° SE 23:10:14 75° SE 23:13:01 10° ENE
Cosmos 2084 Rocket 3.6 23:06:58 10° NW 23:10:50 63° NE 23:13:11 23° ESE
In-Cosmos 22 Rocket 4.2 23:08:21 30° S 23:11:17 78° E 23:16:50 10° NNE
Cosmos 2058 Rocket 3.6 23:10:45 10° NNW 23:15:00 49° W 23:16:43 31° SSW
Cosmos 1602 Rocket 4.1 23:15:24 31° SE 23:16:56 45° E 23:21:04 10° NNE
Cosmos 1959 Rocket 4.5 23:11:59 10° NNW 23:18:05 75° W 23:21:25 29° S
Cosmos 2181 Rocket 4.0 23:15:18 27° SSW 23:18:50 82° W 23:25:05 10° N
Cosmos 2278 3.9 23:17:55 10° NNW 23:23:40 71° ENE 23:27:31 21° SE
Cosmos 1302 Rocket 3.9 23:21:10 29° SSW 23:23:55 88° WNW 23:29:09 10° NNE
Cosmos 192 4.3 23:21:55 28° SSW 23:24:29 79° WNW 23:29:26 10° NNE
Cosmos 2322 Rocket 3.9 23:19:38 10° NNW 23:24:37 30° NE 23:29:36 10° ESE
Geosat FO 4.4 23:25:31 45° SSE 23:26:28 88° ENE 23:30:02 10° NNW
USA 234 4.4 23:26:12 22° SSW 23:28:04 24° SW 23:33:15 10° WNW
ATLAS 2AS CENTAUR R/B 4.3 23:25:21 10° WNW 23:29:36 17° WSW 23:32:16 14° SW
Cosmos 1833 Rocket 3.4 23:26:16 14° SW 23:30:56 51° NW 23:36:27 10° NNE
CZ-2D R/B 4.4 23:33:22 10° ENE 23:35:24 12° E 23:37:25 10° ESE
Geosat 4.1 23:35:57 21° SE 23:39:20 73° ENE 23:44:22 10° NNW
BREEZE-M DEB (TANK) 4.1 23:36:58 10° W 23:40:43 84° SSW 23:57:09 10° ESE
Okean 1-7 Rocket 3.9 23:39:49 31° SW 23:41:44 59° WNW 23:46:10 10° N
Cosmos 1626 Rocket 3.7 23:42:03 34° SSW 23:43:49 65° WNW 23:48:09 10° N
Cosmos 2082 Rocket 2.2 23:41:31 26° SSW 23:44:53 85° WNW 23:50:39 10° NNE
Cosmos 1821 Rocket 4.0 23:41:00 10° N 23:47:21 87° W 23:50:56 27° S
Cosmos 1869 4.0 23:46:15 10° NNW 23:49:52 39° W 23:50:55 32° SW
ATLAS 5 CENTAUR R/B 2.4 23:51:04 26° SE 23:51:32 27° ESE 23:54:58 10° ENE
Cosmos 1238 4.3 23:52:31 50° SE 23:52:59 59° E 23:55:58 10° NNE
Cosmos 1825 Rocket 4.0 23:53:55 30° SSE 23:55:40 50° E 23:59:52 10° NNE
